Wind_Speed
19 22 24 26 25 23 20 19 19 18 17 17 16 15 16 17 17 16 16 16 15 15 15 15 15 15 14 13 14 15 15 15 14 15 15 15 14 13 13 13 13 12 13 13 15 18 18 19 19 18 17 17 16 16 15 15 15 15 15 15 15 15 14 14 15 15 15 15 14 15 15 16 16 16 16 16 15 15 16 17 17 17 18 18 18
23 24 25 27 26 23 21 20 20 19 18 18 17 16 16 16 17 17 17 15 15 15 15 15 15 14 13 13 14 15 15 14 14 14 14 14 14 13 12 13 13 13 13 13 16 17 17 18 18 17 16 16 15 15 14 14 13 13 13 13 14 14 13 13 13 14 14 14 15 17 17 18 17 16 16 16 16 16 16 17 17 17 17 17 17
26 24 26 28 26 23 22 20 20 20 19 19 17 17 16 16 17 17 17 16 15 15 15 14 13 13 12 12 14 14 14 14 14 14 15 14 14 13 12 13 13 12 13 14 16 16 15 16 16 15 14 15 14 14 13 13 12 11 11 12 12 13 13 12 13 13 13 12 12 15 17 18 19 18 16 15 15 16 16 16 16 16 16 16 16
27 25 27 28 26 24 22 21 21 21 20 19 18 18 17 17 16 16 17 16 16 15 15 14 13 12 12 12 13 14 13 13 13 14 15 15 14 14 14 13 13 12 13 13 15 15 14 14 15 14 13 13 12 12 12 12 11 10 10 10 11 11 12 12 13 14 13 11 9 11 14 16 17 18 17 15 14 14 15 15 15 14 14 15 15
27 26 27 28 26 25 23 21 21 21 20 19 18 18 17 16 16 16 17 17 17 16 15 14 13 13 12 12 13 14 13 13 12 14 16 15 15 15 14 13 13 13 13 12 14 14 13 13 13 13 12 11 11 11 11 10 9 8 8 9 10 10 11 11 12 12 11 9 7 6 9 13 15 17 16 15 14 14 14 14 14 13 13 14 14
27 27 28 27 25 24 24 22 21 21 21 19 18 18 17 16 16 16 16 16 17 16 16 15 14 13 13 13 13 14 14 13 13 15 16 16 15 15 14 13 13 12 12 11 12 13 12 12 11 11 11 10 9 9 9 8 7 7 6 7 8 9 10 10 10 10 9 7 6 5 8 13 13 15 15 13 13 13 13 13 13 12 13 13 13
25 27 27 26 24 24 25 23 22 22 22 20 19 19 17 16 16 15 15 16 16 16 17 16 15 15 14 13 13 14 13 13 14 16 17 17 16 15 14 13 12 12 12 10 11 12 12 11 10 9 9 8 8 8 7 6 5 5 5 6 7 8 9 10 10 9 10 8 7 8 10 13 13 13 14 13 12 11 12 12 12 12 12 12 13
23 25 26 25 24 25 26 24 23 23 22 21 20 19 17 17 16 16 16 16 16 16 16 16 16 16 16 14 13 14 13 12 14 16 17 17 16 15 15 13 12 12 12 10 11 11 11 10 9 8 8 7 7 7 6 5 3 4 5 7 6 7 8 9 9 7 9 8 8 10 11 13 12 13 14 13 11 11 11 11 12 12 12 12 13
22 24 24 23 23 27 27 25 24 23 22 21 21 20 18 17 17 17 16 16 15 16 16 16 16 16 16 14 14 15 13 12 14 16 17 17 17 16 15 14 12 12 11 11 10 11 11 10 9 8 7 6 6 6 5 4 3 3 6 7 6 6 7 7 8 6 6 8 10 11 11 12 12 12 13 12 11 11 11 11 12 12 13 13 14
22 23 22 21 23 27 27 26 25 23 21 20 20 20 18 17 17 16 14 14 13 14 14 15 15 16 16 14 15 15 13 13 14 16 17 18 18 17 16 14 13 12 11 11 10 10 11 9 9 8 7 6 6 5 4 3 3 5 7 7 6 5 6 6 7 7 7 8 10 12 12 12 12 13 13 12 11 12 12 12 12 13 13 14 15
22 21 19 21 24 27 27 26 25 23 21 19 20 20 18 17 17 15 13 12 12 13 14 14 15 16 16 16 17 15 13 15 16 17 18 19 19 17 16 15 14 12 11 10 9 11 11 9 9 7 7 6 5 4 3 3 4 6 7 7 6 5 5 4 4 5 6 8 10 12 13 13 13 13 13 12 12 12 12 13 13 14 14 15 14
21 20 18 21 25 27 27 25 25 23 21 19 20 19 17 17 16 14 12 11 13 15 16 16 16 16 16 18 18 15 14 16 18 18 18 19 18 17 17 16 15 12 11 10 9 11 12 9 8 7 6 6 5 4 3 4 5 8 8 7 5 5 5 4 4 4 5 8 11 12 12 14 14 14 13 12 12 12 13 13 14 14 14 14 13
21 19 20 23 24 27 27 25 25 23 20 19 19 19 17 16 15 13 11 11 15 17 17 17 17 16 17 18 16 14 15 17 18 17 18 19 17 17 17 15 14 13 11 10 10 12 11 9 8 7 6 6 5 5 5 5 7 8 7 6 5 5 4 5 4 3 5 9 11 12 13 14 14 14 13 12 13 13 13 13 13 13 13 13 13
20 19 21 22 22 26 26 25 25 23 20 18 18 19 17 15 14 13 11 13 15 16 16 16 16 16 18 19 15 13 15 18 17 16 17 17 15 17 15 14 14 13 11 11 12 12 11 9 8 7 6 6 6 6 6 6 8 8 7 5 5 4 3 4 3 2 5 10 11 13 14 14 14 13 13 13 13 12 12 12 13 13 13 13 12
19 20 21 21 23 24 24 25 25 22 20 18 18 18 16 14 14 13 12 14 15 16 15 15 15 16 20 19 15 14 16 17 16 16 17 16 15 15 14 14 14 13 12 13 13 12 10 9 8 7 6 6 6 7 7 7 8 7 6 5 4 3 1 3 4 4 5 9 12 14 15 14 14 14 13 12 12 11 11 11 12 12 12 12 10
19 20 22 22 24 23 22 24 24 22 20 19 18 17 16 14 14 13 12 15 17 16 16 15 14 16 19 19 16 15 15 16 16 17 17 16 15 14 13 13 14 13 14 14 13 12 10 9 8 7 6 6 6 6 7 8 8 6 5 5 4 2 2 4 5 5 6 10 13 14 15 15 14 13 13 12 12 11 11 11 11 11 10 9 8
19 19 22 25 25 23 21 22 24 21 20 19 18 18 16 15 14 13 13 15 17 16 16 16 15 16 18 19 18 16 16 16 16 17 16 15 14 13 13 14 14 14 15 14 13 11 10 9 8 7 6 6 6 7 7 8 7 6 4 5 5 4 3 4 5 5 8 11 13 14 15 14 14 13 13 12 11 11 11 11 10 9 8 8 9
18 18 21 25 25 23 22 22 22 20 20 20 19 18 17 16 15 15 14 14 16 16 16 16 16 16 18 20 18 17 17 16 15 16 15 15 14 13 13 15 15 15 16 14 13 12 10 9 8 7 6 6 6 7 7 7 6 5 4 4 6 5 4 4 5 6 9 12 13 15 15 13 13 13 12 11 10 10 10 9 9 8 9 9 10
16 17 19 23 24 23 23 22 22 20 19 20 20 18 17 17 16 15 14 13 14 16 17 16 15 15 18 19 18 18 18 17 16 15 15 14 14 12 13 15 15 15 16 14 13 12 10 9 8 7 6 6 6 7 8 7 6 5 4 5 6 5 4 6 8 8 10 13 14 14 13 13 12 11 10 10 9 8 8 7 8 8 9 10 10
16 16 18 21 23 23 23 22 22 21 19 19 19 18 18 18 17 16 14 14 13 14 17 16 15 14 15 17 18 18 18 18 16 15 15 14 13 12 13 15 14 15 16 14 14 12 10 9 7 7 6 6 7 7 8 8 7 6 4 5 4 2 4 5 7 9 10 13 14 13 12 12 11 10 10 9 7 6 7 8 8 9 9 9 10
18 17 18 19 21 23 24 22 22 23 20 19 19 17 18 18 17 17 15 15 12 13 16 16 15 14 14 15 17 17 16 17 15 15 15 13 12 12 15 15 14 15 16 14 14 12 11 9 8 7 6 7 7 7 8 8 8 6 5 4 3 2 5 5 6 9 11 13 14 13 12 11 10 10 10 8 6 6 8 8 8 9 9 10 11
20 19 19 20 21 22 23 23 22 23 20 19 20 18 19 18 17 17 16 15 13 12 13 14 15 15 14 14 14 14 14 15 14 15 14 13 13 13 14 15 14 14 16 14 14 12 11 9 8 7 7 7 7 8 9 8 8 7 6 3 1 3 4 6 8 10 11 13 13 12 11 11 10 8 7 6 6 8 8 8 8 9 10 11 11
21 21 21 22 21 21 22 23 22 24 21 19 21 20 20 19 17 17 16 15 14 13 13 13 14 16 16 15 14 14 14 14 14 14 15 15 14 13 14 15 14 14 16 14 14 12 11 10 9 8 8 8 9 9 9 8 9 8 6 2 2 3 4 6 9 10 12 13 12 11 11 10 8 6 6 6 7 8 8 8 9 10 11 12 12
22 21 22 22 21 20 21 22 22 24 22 19 21 21 21 19 19 19 18 17 15 14 14 13 14 16 17 17 15 15 15 15 14 13 15 15 14 14 14 15 14 14 16 14 13 12 11 10 9 10 10 10 11 10 9 8 9 9 5 3 3 5 6 8 9 11 13 13 12 12 11 9 7 5 5 6 7 7 8 8 8 10 11 11 12
20 20 21 22 21 21 21 21 22 24 22 20 20 20 21 19 18 20 19 19 17 15 15 14 14 16 17 17 16 16 15 15 15 14 15 16 14 14 13 14 14 14 16 14 12 13 11 11 11 12 12 13 12 10 8 8 9 10 6 4 3 5 6 10 11 13 14 12 12 12 11 10 7 5 5 6 7 8 8 8 9 10 10 10 11
20 20 21 22 21 21 22 21 22 23 22 20 19 19 21 19 18 19 19 19 18 17 16 15 15 16 16 16 16 16 16 15 16 15 16 16 15 15 14 15 15 15 17 14 13 14 13 13 13 14 14 13 11 8 8 8 8 8 6 6 4 3 6 11 11 13 14 12 11 11 10 8 5 5 6 7 8 9 9 10 10 10 10 10 10
20 20 21 22 22 21 22 23 23 23 22 20 19 19 19 18 18 18 18 19 18 17 16 16 16 17 16 16 16 15 16 15 16 17 17 17 16 15 15 15 16 16 18 15 14 15 14 15 14 14 14 11 10 8 7 7 5 5 5 6 4 3 6 10 11 12 14 12 10 8 7 5 5 7 8 9 10 10 11 10 10 10 10 11 10
19 21 21 22 23 22 23 23 23 23 22 21 20 19 18 18 19 18 18 19 19 17 16 16 16 17 17 16 16 16 16 15 16 17 17 16 15 15 15 16 16 16 17 16 14 14 14 14 13 13 12 10 10 8 7 7 5 4 6 5 4 4 6 9 11 10 12 13 10 6 5 6 7 9 10 11 11 11 11 10 10 10 10 10 10
20 22 22 22 24 23 23 24 24 24 23 22 20 19 19 18 18 19 18 19 19 17 17 17 16 17 17 17 16 16 16 15 16 17 16 15 15 15 15 15 15 15 16 16 14 14 14 13 12 12 11 10 9 8 7 6 6 6 7 7 5 5 6 8 9 10 12 12 10 7 7 8 10 11 11 11 11 10 10 9 9 9 9 9 9
21 22 23 24 25 24 25 25 24 25 24 23 21 19 19 19 19 19 18 18 18 17 17 17 16 17 17 17 17 16 16 15 16 16 15 16 15 15 15 14 15 14 15 15 13 14 14 12 12 12 10 10 9 8 7 4 6 7 8 8 6 6 6 7 8 10 12 10 9 8 8 10 11 12 11 10 10 9 9 9 9 9 8 8 8
22 23 22 24 27 26 26 26 25 25 25 23 21 20 19 19 20 19 18 18 18 17 17 17 16 16 16 17 17 17 16 15 16 16 15 15 15 15 14 14 14 13 14 15 13 13 13 12 12 11 9 8 8 9 9 6 6 8 8 8 7 7 6 6 6 7 10 11 10 10 9 9 10 10 10 10 10 9 9 8 8 8 8 7 7
23 24 23 24 28 28 27 28 26 24 24 23 21 20 20 20 20 19 18 18 18 18 17 17 16 16 16 17 17 17 16 16 17 16 15 15 15 15 14 13 14 13 14 14 13 13 12 12 12 10 8 7 8 9 9 8 8 9 9 8 7 7 6 4 5 6 7 9 8 8 9 9 10 10 10 10 10 9 9 8 8 7 7 7 7
23 23 22 24 28 28 28 29 28 26 25 24 22 20 20 20 19 19 18 18 18 18 17 17 16 16 16 18 17 18 17 15 17 16 15 15 14 15 14 13 13 13 13 13 13 13 13 11 10 9 7 7 8 9 10 9 9 9 9 8 7 7 6 4 5 5 5 6 6 7 9 10 10 10 10 10 10 9 8 8 7 7 6 6 6
23 24 24 26 28 27 27 28 29 29 27 25 22 21 20 20 19 19 18 18 19 18 18 17 16 16 16 18 18 18 17 15 16 16 15 15 14 14 14 13 12 13 13 13 14 13 13 12 11 9 7 7 8 8 8 9 10 10 8 8 7 6 5 5 5 5 5 6 6 8 9 10 10 10 10 10 9 9 8 7 7 6 6 5 5
25 27 27 29 29 28 28 28 28 29 27 25 23 21 20 20 19 19 18 19 18 18 18 17 16 16 16 18 19 18 17 15 16 17 15 14 14 14 14 13 13 13 13 14 14 14 13 14 14 12 9 9 9 7 8 9 11 10 8 8 8 6 5 5 5 6 6 6 7 8 9 9 9 9 9 9 9 9 9 8 7 6 6 5 5
25 26 28 29 28 28 30 30 29 28 26 25 24 21 20 20 19 18 18 18 18 18 18 17 16 16 16 18 19 18 17 16 16 16 16 14 14 14 14 13 13 14 13 13 15 15 14 12 13 14 12 11 10 10 10 11 11 11 11 9 8 7 5 5 5 6 6 6 7 7 8 8 9 9 9 9 8 8 9 9 8 6 6 5 4
23 26 28 29 29 29 31 32 31 28 26 25 24 22 21 20 19 18 18 18 18 17 17 17 16 16 16 17 19 19 17 17 17 16 16 15 14 13 13 13 14 14 13 12 15 16 14 9 11 13 13 12 12 12 12 10 11 14 12 9 8 6 5 5 5 5 5 6 7 7 8 8 8 8 8 8 8 7 8 9 9 8 7 6 5
21 25 27 27 28 29 30 34 32 29 27 26 24 23 21 20 19 18 18 18 18 17 16 17 17 16 16 17 19 19 18 17 16 15 15 14 14 13 12 13 14 14 12 13 16 16 14 9 11 11 13 13 13 14 13 11 11 11 10 7 6 6 5 5 4 4 5 5 7 7 8 7 7 8 7 8 8 8 7 8 8 8 8 7 6
21 25 26 25 27 26 27 32 33 30 28 26 25 23 22 21 19 18 18 18 18 17 17 17 17 16 17 18 20 20 18 17 17 16 15 14 14 13 12 13 15 13 13 14 16 16 14 10 12 13 13 12 13 15 15 13 10 9 8 6 6 6 5 5 4 5 5 6 7 7 7 8 8 8 7 7 8 8 9 8 8 8 6 5 5
21 25 27 26 27 25 24 29 31 31 29 27 26 25 23 23 21 19 19 18 18 17 17 17 16 16 17 18 20 20 18 18 18 17 16 14 14 14 12 13 14 14 13 14 15 14 12 10 13 15 14 13 14 16 14 13 12 11 10 7 6 5 6 6 5 5 6 6 7 7 7 8 8 8 8 8 8 9 9 9 9 9 7 3 2
22 25 27 27 27 27 26 27 30 32 30 29 28 27 25 24 22 21 20 18 18 17 17 17 16 16 17 19 20 20 18 18 18 18 17 15 14 14 14 13 14 13 13 14 14 13 12 10 12 14 15 15 15 15 14 14 13 12 11 8 6 5 5 6 6 6 7 7 7 7 7 8 8 8 8 8 8 9 9 9 8 8 8 6 4
25 27 28 29 28 26 26 27 29 32 31 28 28 27 25 25 23 22 20 19 19 18 17 17 17 16 17 19 20 20 19 19 18 18 17 16 14 14 14 14 13 12 12 12 13 11 11 11 11 14 16 17 16 15 16 16 14 13 12 9 5 5 6 6 7 7 8 7 7 8 8 8 9 9 9 9 9 9 9 9 8 7 8 7 7
26 28 29 30 29 26 27 27 28 31 30 27 26 26 24 24 24 22 21 20 19 19 18 18 18 16 18 19 20 20 19 19 18 18 17 16 15 14 14 14 13 12 11 12 12 11 12 11 11 16 18 16 14 17 20 17 14 15 13 7 6 6 6 8 9 8 9 8 8 8 8 9 9 9 9 9 9 10 10 9 8 8 7 6 7
25 28 30 29 28 27 28 28 29 30 29 27 25 24 23 24 22 22 22 19 18 19 17 18 18 17 18 20 20 20 19 19 18 18 17 16 16 14 14 14 14 13 12 13 12 13 15 14 13 16 17 16 14 17 22 17 14 15 10 5 6 5 5 7 10 10 10 9 9 9 9 9 10 10 9 9 10 10 10 9 9 9 8 7 6
25 28 31 29 27 29 29 28 29 29 28 28 27 24 24 24 22 21 21 19 18 18 17 17 19 19 19 20 20 20 20 19 18 18 17 16 16 15 14 14 14 13 14 14 13 14 16 16 15 16 16 16 14 16 19 16 16 17 9 4 6 4 3 7 11 8 10 11 10 11 10 9 10 11 10 9 10 11 10 10 9 9 8 8 7
25 27 29 29 28 30 31 29 29 29 28 29 29 27 26 25 25 24 23 21 18 18 18 18 20 20 20 20 20 20 20 19 18 18 18 17 17 16 16 14 14 14 15 14 13 14 15 15 16 15 14 13 12 14 16 17 18 17 12 5 5 4 1 7 8 5 9 12 11 12 12 11 11 11 11 10 10 11 10 10 10 10 9 8 8
24 27 28 29 29 30 32 31 29 28 28 29 30 28 27 26 25 26 25 24 21 19 19 19 19 20 20 20 20 19 19 19 18 18 18 17 17 17 17 15 14 15 15 16 14 13 14 15 15 14 14 13 12 13 15 19 18 15 13 10 8 7 4 5 5 2 6 9 10 12 13 14 13 12 12 11 11 12 10 10 10 11 10 9 9
21 26 28 29 30 30 32 32 29 27 28 30 31 30 28 26 25 24 24 25 23 20 20 20 19 19 19 19 20 19 19 19 19 18 18 18 17 18 17 15 15 15 16 17 16 14 13 14 14 14 14 13 14 13 13 18 18 14 14 14 11 10 9 8 7 5 3 4 8 11 13 15 14 13 13 11 12 12 12 11 10 10 11 10 10
23 25 27 29 30 30 32 32 29 27 28 30 32 31 29 28 26 24 23 24 23 22 21 19 18 18 19 19 19 19 19 19 19 19 19 19 18 18 17 16 16 15 16 17 16 14 13 12 13 14 13 13 14 13 12 15 16 13 13 14 13 12 11 10 9 8 6 5 4 7 12 14 13 14 14 12 12 12 12 12 11 10 11 11 10
26 24 25 26 28 28 30 32 30 28 30 31 32 32 30 28 27 26 25 25 24 23 21 20 19 19 19 20 19 19 19 19 20 20 20 20 19 18 18 17 16 16 16 15 13 13 12 12 13 14 15 14 14 14 12 13 13 12 12 13 12 12 11 9 9 9 7 7 7 6 11 13 11 13 15 15 13 12 13 12 11 11 10 11 10
24 23 24 25 25 26 28 32 32 30 31 32 32 32 30 28 28 27 26 27 26 25 24 22 21 20 20 21 20 19 19 20 20 20 21 20 19 19 18 17 17 16 17 15 12 14 15 14 15 15 16 15 14 14 14 14 11 11 12 13 12 12 11 9 9 9 8 8 8 6 9 13 14 14 16 17 15 13 13 12 12 12 10 10 10
Wind_Direction
149 146 152 168 166 164 166 168 167 159 155 152 152 156 160 159 159 159 158 156 155 156 152 152 152 154 151 148 139 134 133 128 127 130 133 133 129 124 117 111 111 107 103 103 106 109 108 108 106 103 99 94 90 87 87 87 86 82 79 76 73 75 77 81 83 82 80 77 76 78 76 71 68 63 59 60 66 67 67 67 61 56 56 54 52
147 145 153 166 165 164 165 167 166 159 156 153 153 155 158 158 159 160 159 158 158 159 156 154 154 156 153 147 141 136 134 133 134 134 135 134 132 128 121 114 114 113 107 107 110 110 110 110 107 102 98 92 89 87 88 88 88 86 82 80 76 75 77 79 81 80 80 77 76 76 75 73 68 65 61 59 65 67 69 70 62 57 57 54 50
142 143 151 164 165 165 166 167 165 160 158 155 156 155 156 157 158 159 158 158 158 159 157 155 153 156 151 145 144 140 136 136 139 141 138 135 133 130 124 116 117 118 110 110 113 113 112 112 108 104 99 94 91 88 87 86 87 89 87 83 79 76 76 76 77 77 79 80 82 77 71 70 66 64 64 60 59 59 60 65 62 58 56 54 52
140 142 150 163 166 166 168 167 166 163 159 157 158 156 157 157 157 155 156 156 156 157 157 155 155 159 151 144 147 145 141 139 141 147 144 139 136 130 125 119 118 120 113 113 117 118 118 116 113 107 101 96 93 89 86 84 85 90 93 89 83 79 77 76 77 78 77 76 87 87 73 70 67 62 63 62 59 57 55 56 59 59 53 50 52
141 144 151 160 165 168 169 167 167 163 159 159 160 159 157 155 155 154 157 157 157 157 155 156 156 156 148 146 150 148 143 139 139 147 148 141 139 133 127 123 120 120 117 117 122 124 124 123 119 111 104 99 94 90 86 83 83 90 97 97 89 82 80 78 79 76 75 73 72 87 83 76 70 63 62 62 59 57 55 55 60 64 56 46 49
142 144 150 156 159 167 170 168 168 164 159 160 162 160 157 155 156 156 157 158 159 159 156 157 156 151 149 153 154 150 144 141 140 144 147 141 139 135 129 128 125 123 122 122 127 129 128 128 123 116 108 102 97 90 84 80 79 88 101 106 97 88 83 78 79 72 71 71 61 70 84 78 73 65 61 61 57 56 55 53 59 61 57 50 45
142 143 150 155 157 167 170 168 166 165 159 160 163 160 158 156 158 158 157 158 160 161 161 160 157 152 153 159 158 154 148 147 148 145 144 143 142 137 132 131 131 128 126 126 129 133 134 132 127 121 114 107 101 93 85 76 72 91 112 116 104 93 85 78 76 74 69 58 59 71 75 77 75 68 60 59 55 55 57 51 55 55 54 55 49
141 144 151 153 159 168 170 167 165 164 159 161 164 160 158 156 158 161 164 166 166 166 167 164 162 159 159 164 164 160 154 154 156 149 145 146 144 137 136 135 134 132 130 129 131 139 140 138 133 126 118 110 103 96 89 80 75 103 128 125 112 96 88 81 74 74 73 57 64 71 70 77 76 71 62 59 54 53 58 51 55 56 52 53 52
143 146 151 152 160 169 168 165 165 163 159 164 165 160 157 157 162 165 169 172 172 172 171 169 169 167 165 168 168 162 159 161 160 153 146 144 143 140 141 138 135 136 135 132 133 146 147 144 138 129 121 111 102 98 93 89 98 125 134 130 119 98 85 82 72 62 69 67 71 70 69 76 75 73 66 63 59 56 62 60 60 58 53 52 54
143 145 150 150 159 167 167 165 164 161 159 166 166 160 157 159 165 169 173 175 180 178 175 173 172 171 168 168 163 159 160 165 162 153 145 142 144 146 145 140 140 140 139 135 136 149 150 146 140 130 122 113 104 101 95 94 116 132 134 129 116 96 84 83 71 51 62 74 76 77 74 76 77 75 70 69 65 62 64 63 64 60 58 58 58
141 145 145 148 160 167 166 164 163 158 159 167 167 162 157 161 168 172 176 179 179 172 166 164 166 167 165 163 156 158 167 166 161 151 143 144 147 147 146 145 147 144 141 138 138 149 150 148 141 132 124 117 109 102 98 103 123 130 131 124 103 84 85 81 56 32 55 76 76 79 77 77 79 77 74 72 69 66 65 64 66 65 65 62 60
140 141 142 151 162 166 165 164 161 157 160 166 168 165 160 164 169 172 173 170 163 155 151 148 150 153 155 158 154 161 174 167 157 149 146 149 149 147 149 151 151 146 142 143 146 152 151 149 141 133 126 117 110 107 106 116 127 129 126 117 94 85 83 52 33 28 65 82 77 77 76 78 79 77 76 75 74 72 69 69 70 68 65 62 59
140 138 142 152 160 164 165 164 161 157 160 166 166 167 166 164 167 167 161 155 152 149 149 147 147 147 151 154 155 166 173 163 151 148 150 151 152 155 157 154 152 145 147 153 153 152 150 149 143 133 125 116 113 113 118 128 131 130 125 108 87 90 71 26 15 17 68 81 79 79 78 80 80 78 80 80 79 76 75 73 72 69 64 61 57
139 137 141 147 154 163 164 162 162 158 161 167 165 167 166 162 163 161 154 149 149 152 152 153 154 153 154 150 156 167 161 155 147 147 150 152 157 160 158 154 152 149 154 158 152 151 152 150 144 134 125 117 116 121 130 139 138 133 123 101 92 102 55 10 18 26 68 82 82 82 82 85 84 82 84 85 83 81 78 75 72 68 62 59 56
136 136 141 145 150 159 162 161 163 160 163 167 166 166 162 158 161 158 155 152 152 156 155 156 156 156 155 150 160 166 153 152 149 150 152 154 158 158 156 156 156 154 156 155 152 154 153 150 145 137 126 119 120 128 139 145 143 136 121 100 105 120 38 10 47 59 78 87 84 83 86 89 89 88 88 87 85 81 77 73 72 68 62 59 55
132 134 139 143 147 155 160 163 164 162 164 166 166 165 160 158 160 158 154 154 156 160 158 156 155 157 158 157 169 170 157 156 155 156 158 158 158 159 161 162 159 156 155 153 155 156 153 151 145 138 129 125 126 136 150 153 151 140 123 105 107 116 46 22 42 64 77 83 86 88 91 91 91 92 89 86 85 80 74 69 66 65 62 57 46
131 134 137 141 147 153 157 162 165 164 165 167 167 165 161 159 161 159 151 154 159 162 161 159 157 161 165 165 175 176 163 162 163 162 162 161 162 165 168 167 162 155 154 155 159 158 155 152 145 140 132 129 135 147 160 162 161 147 127 107 108 108 65 32 42 66 75 81 87 90 93 94 94 93 90 86 83 77 73 67 61 56 48 39 28
135 139 140 143 147 152 156 161 164 165 168 167 167 167 165 163 163 161 153 154 161 165 163 162 160 163 170 171 176 176 170 171 172 169 165 164 166 170 173 169 161 155 156 160 162 160 157 154 148 144 138 137 143 156 169 174 172 155 131 109 105 98 64 54 69 76 79 84 87 91 94 97 97 95 92 88 83 79 77 70 59 45 27 20 14
140 143 146 147 148 152 154 159 164 166 169 167 167 169 170 168 166 164 161 159 163 170 169 166 164 162 170 176 177 175 177 180 177 172 170 169 169 173 178 171 163 159 160 164 164 164 162 158 155 149 147 148 152 162 172 181 179 162 142 118 107 91 54 63 78 77 80 88 89 92 96 98 97 95 94 91 87 85 77 59 42 26 13 11 12
142 148 152 151 150 152 154 159 165 167 167 167 165 168 174 174 169 170 171 166 166 174 175 174 170 165 166 173 178 176 178 180 176 173 172 172 173 178 184 177 168 164 164 167 166 167 166 163 163 160 160 158 161 167 171 181 177 164 149 128 118 73 43 64 87 85 84 92 93 94 100 99 97 97 97 95 92 76 54 37 27 19 16 20 29
148 156 157 155 154 154 156 159 166 168 166 167 165 167 175 175 172 173 175 172 170 173 180 181 176 172 167 168 175 176 176 178 175 173 173 172 174 182 187 180 171 169 168 169 170 169 170 169 169 170 171 170 171 171 174 178 174 163 148 144 144 57 61 83 100 96 90 94 96 98 101 97 98 102 102 100 80 49 32 28 28 30 36 42 48
156 161 160 160 160 160 160 158 166 168 166 168 165 167 171 172 176 177 175 173 173 171 177 180 179 179 174 173 176 175 177 177 176 173 174 174 177 185 187 183 176 173 172 171 174 173 174 175 176 180 179 181 177 175 179 176 174 163 144 150 131 82 94 102 100 99 98 98 99 101 101 99 101 105 104 89 52 33 28 34 41 50 57 60 58
162 162 161 164 164 168 165 159 167 167 164 169 165 166 169 169 176 178 174 173 175 173 175 176 179 181 178 180 182 184 182 180 184 179 175 178 184 189 187 188 185 178 175 175 178 176 179 181 182 186 184 186 176 177 183 172 170 156 140 156 113 118 134 115 104 104 106 104 103 104 100 100 101 97 85 57 32 33 41 47 54 65 71 71 66
164 161 161 165 168 170 167 160 167 167 164 169 165 166 169 169 176 178 175 174 176 175 179 178 179 180 178 183 185 188 188 184 189 185 179 180 185 190 189 192 190 184 178 177 182 182 185 186 189 190 189 192 188 190 186 171 172 158 149 165 142 168 153 115 101 102 107 105 104 106 102 104 101 87 64 39 37 48 54 61 70 77 78 79 76
161 160 160 165 171 170 167 164 168 169 167 169 167 168 170 170 177 180 178 176 176 178 183 182 182 180 179 186 185 187 192 185 185 187 185 181 182 187 191 192 191 190 182 179 188 188 188 189 193 194 195 202 206 204 186 181 178 157 151 155 165 205 148 109 99 100 104 102 104 109 110 114 104 76 58 49 56 62 65 76 84 85 83 83 82
162 162 162 166 174 172 169 170 171 171 171 170 169 170 173 175 176 180 183 180 177 178 183 186 186 183 182 188 188 188 190 183 181 188 188 185 186 189 193 192 191 193 186 185 192 192 194 193 195 200 204 209 213 208 190 189 171 150 155 154 166 199 117 107 103 100 100 98 104 113 119 123 106 74 69 69 74 77 80 84 87 88 87 83 79
164 165 165 166 173 174 170 171 171 173 173 171 170 169 175 181 177 180 186 183 180 180 184 189 188 188 188 188 191 190 189 184 182 189 190 189 192 189 192 192 192 194 191 195 197 194 200 198 196 203 208 209 209 205 197 188 159 156 161 146 156 153 113 110 106 101 100 97 102 117 127 124 94 81 80 83 87 89 91 90 88 87 89 88 82
165 163 164 164 170 174 171 170 172 174 174 174 174 171 176 182 178 181 188 185 183 183 186 190 189 191 193 191 192 191 192 189 184 189 191 191 192 188 191 191 192 194 193 200 200 197 205 204 200 205 208 208 206 202 194 179 155 155 146 141 176 154 122 114 108 105 103 101 102 116 129 110 91 90 92 95 96 93 93 95 95 91 90 94 91
167 161 161 163 166 170 172 173 174 175 176 177 177 176 178 181 181 185 190 186 184 187 188 190 191 193 196 195 193 191 194 191 186 191 190 190 191 188 192 190 193 196 193 201 203 199 207 206 202 207 207 204 201 193 192 178 153 153 150 158 176 144 123 117 113 109 106 106 105 115 121 105 98 100 102 104 104 102 99 98 100 98 94 95 96
167 161 160 162 164 168 172 175 176 176 177 180 180 179 179 180 183 188 191 188 188 191 190 191 194 195 198 198 196 195 196 191 188 191 189 190 190 188 193 190 194 197 193 200 202 201 207 205 203 210 207 201 197 182 178 168 154 167 171 172 163 136 129 123 118 111 110 114 112 121 128 120 118 116 116 113 109 111 109 108 105 100 99 97 97
166 164 163 162 165 167 170 174 178 177 177 181 181 180 181 183 185 188 190 188 190 193 191 194 197 197 199 198 199 199 198 194 190 191 189 189 189 188 191 189 193 196 194 199 202 202 205 204 204 211 205 193 183 167 169 168 164 178 180 178 162 137 136 135 128 116 116 119 115 122 132 136 137 135 130 122 117 117 117 116 112 106 106 103 100
168 169 167 164 166 167 169 173 177 179 179 181 181 181 183 186 188 189 191 190 191 193 193 196 197 200 201 199 201 200 199 195 191 192 190 188 188 188 189 189 191 193 195 199 202 203 205 206 206 204 197 184 162 153 175 184 177 181 181 174 156 140 139 135 118 107 118 123 121 127 132 135 134 131 128 123 121 122 123 122 118 114 112 107 103
169 170 168 165 165 167 168 170 175 178 180 181 182 184 184 187 189 190 191 190 192 194 196 198 197 201 201 200 200 199 198 195 191 192 190 189 187 186 189 190 191 192 195 199 200 204 206 205 202 192 182 185 167 155 175 184 183 187 181 168 151 141 134 119 111 114 126 127 131 139 139 137 132 130 127 127 128 128 130 128 123 122 119 114 108
166 168 169 166 165 167 168 169 173 176 179 180 181 184 186 188 189 191 190 188 192 197 198 199 199 202 202 199 198 197 197 194 191 191 192 190 186 187 189 190 192 192 194 198 200 204 206 200 196 188 172 182 179 166 173 174 188 193 175 159 141 135 132 123 126 130 130 127 136 145 148 145 140 137 135 138 141 135 133 132 132 129 124 122 116
165 168 169 167 166 167 167 167 171 176 180 180 181 183 186 188 189 192 191 187 192 197 200 200 200 202 200 196 196 194 194 193 190 190 192 190 187 188 189 191 192 192 196 200 202 206 209 201 194 191 175 174 176 170 179 188 201 193 156 147 140 136 137 131 137 135 133 137 144 147 149 150 147 146 146 148 149 145 145 143 142 139 134 130 124
167 169 167 165 167 168 166 164 168 175 180 181 180 182 185 188 190 191 190 188 190 194 200 201 201 201 198 193 192 191 191 191 189 190 194 192 190 190 189 191 188 192 198 200 206 210 215 206 185 191 182 170 176 174 182 192 191 169 145 144 146 144 138 140 150 143 140 143 146 151 154 155 152 153 154 152 152 162 170 162 150 144 140 137 132
168 165 165 165 168 170 166 162 166 173 178 181 180 180 183 187 190 190 188 189 192 195 199 200 202 200 195 191 188 187 188 188 188 192 199 199 196 193 189 189 187 193 198 201 211 215 223 202 156 182 185 167 171 171 173 173 160 155 151 146 146 149 144 149 156 143 146 149 149 156 159 157 154 156 160 158 156 169 189 182 166 154 147 145 138
169 164 166 168 171 173 167 161 164 170 175 179 180 180 181 184 189 188 187 189 193 197 199 200 202 199 195 191 185 185 186 186 190 195 204 207 203 196 188 189 189 196 202 206 215 220 226 196 143 174 186 168 163 160 162 156 147 155 159 151 147 146 143 152 157 151 158 159 155 158 159 161 163 166 170 165 160 162 178 187 175 164 161 158 153
171 164 165 170 173 177 168 159 161 167 174 177 179 179 178 183 186 185 186 189 193 197 200 201 202 200 195 189 183 184 186 187 193 198 207 211 206 197 191 193 195 201 206 210 219 224 225 197 159 175 185 175 164 159 159 152 150 164 166 160 153 148 152 160 169 167 168 162 159 163 162 164 169 170 172 170 168 166 169 179 176 170 172 172 167
172 166 167 173 173 175 170 161 161 165 172 176 178 178 178 182 184 185 186 187 191 195 200 203 200 200 196 189 184 184 187 190 195 200 207 211 207 199 193 196 201 206 209 213 221 223 220 193 162 169 179 174 165 164 164 155 156 165 166 163 155 165 172 172 185 178 171 168 166 171 166 166 169 169 174 175 176 176 178 186 186 178 176 186 177
169 167 170 177 174 173 171 166 163 164 170 176 179 180 179 180 182 185 186 185 190 192 198 203 199 199 197 190 186 186 189 191 196 201 206 210 208 202 199 200 204 209 213 218 222 221 215 191 161 168 173 166 167 173 169 157 157 163 165 163 159 180 178 179 197 187 180 179 173 177 171 170 173 171 178 181 183 186 188 194 195 187 182 198 215
171 171 174 183 178 172 172 170 168 167 172 177 181 183 181 178 179 182 184 183 189 191 195 202 200 199 198 193 188 188 190 192 196 201 204 207 205 203 204 204 206 210 217 221 223 222 211 191 172 176 173 167 173 180 171 164 168 168 163 162 171 193 189 197 213 201 189 185 180 184 181 181 180 177 181 183 188 193 193 195 195 193 193 205 210
176 177 180 184 177 172 175 175 173 171 174 178 181 184 182 178 176 177 182 182 189 195 196 201 201 199 198 195 190 189 191 193 196 200 203 205 203 203 204 206 207 210 217 220 221 219 209 198 184 179 177 175 178 179 175 176 179 168 161 171 182 187 192 204 216 213 199 190 190 192 189 193 190 181 184 189 196 198 196 193 192 193 202 213 210
179 182 184 182 176 176 178 178 179 174 174 178 179 183 181 177 174 173 179 183 189 196 198 200 200 199 198 196 193 191 192 194 196 199 202 203 203 204 205 206 207 210 215 219 220 215 209 207 193 182 183 183 180 180 181 185 180 167 169 187 178 194 213 191 195 205 202 197 200 202 198 200 197 187 190 197 201 203 200 196 193 193 201 217 221
182 184 184 179 175 179 180 179 181 176 174 176 177 181 179 175 172 169 178 188 191 190 195 201 200 200 199 196 194 192 194 197 198 200 202 203 204 204 205 206 206 209 214 219 223 218 213 209 199 192 192 189 182 179 183 188 184 177 184 179 160 214 255 165 173 191 199 202 206 208 206 204 203 196 201 208 205 205 205 202 198 195 202 215 222
186 183 183 179 177 180 180 179 180 178 177 177 177 180 179 175 172 169 174 186 189 184 191 203 201 200 199 195 195 193 194 198 199 200 202 203 204 204 204 203 205 210 214 218 223 222 217 211 205 198 193 193 183 175 182 189 192 193 204 212 186 227 249 159 170 174 190 204 209 209 208 206 208 205 208 217 211 207 207 206 202 199 206 214 219
191 181 182 182 180 179 180 180 179 178 177 177 178 178 178 178 177 174 172 179 185 184 191 201 200 200 198 194 193 194 196 199 201 203 203 204 205 205 204 202 206 212 214 215 218 222 220 212 208 201 194 197 193 185 183 184 194 208 215 225 226 233 234 193 201 176 178 203 208 211 212 205 207 210 213 220 218 211 208 209 208 206 210 213 216
199 182 181 182 179 176 178 180 179 178 178 179 180 180 179 179 180 178 173 175 181 184 190 196 197 198 196 191 191 194 196 200 203 205 205 205 205 204 204 203 206 211 214 216 215 218 221 213 207 204 201 200 196 195 187 181 191 205 208 217 228 232 231 226 240 254 241 225 202 208 215 207 206 210 213 220 223 215 207 209 216 215 210 207 213
211 190 180 180 178 174 175 179 179 180 180 181 182 183 182 179 180 180 175 173 177 181 189 194 194 194 192 189 190 192 196 202 206 208 208 206 206 205 204 204 208 211 214 219 220 218 220 216 208 202 201 199 195 199 196 187 192 198 201 211 221 228 230 228 235 247 261 267 228 202 201 201 206 211 212 219 225 220 210 209 221 228 212 201 211
215 200 181 179 177 173 174 177 179 182 183 183 185 187 185 181 182 183 178 174 173 178 185 187 187 190 191 190 192 193 196 203 208 209 210 207 206 206 205 206 209 211 214 218 225 224 220 218 212 204 202 200 197 199 196 189 194 201 205 210 218 224 227 225 225 231 241 252 255 224 199 196 199 208 208 210 222 223 213 208 218 231 219 200 208
210 204 188 183 178 175 176 178 181 183 182 184 189 191 187 183 185 185 181 177 173 175 180 183 185 190 195 194 195 197 198 203 207 208 210 209 206 206 206 208 208 211 214 213 221 226 218 215 214 208 205 200 195 195 195 193 197 206 209 212 219 223 223 223 222 224 227 235 244 241 225 206 197 206 204 200 214 219 215 214 212 223 223 205 208
Height
782 785 788 789 793 794 798 799 802 803 805 806 808 810 811 813 813 815 816 817 818 820 821 822 822 823 824 824 825 826 827 828 829 830 831 832 833 834 834 835 835 836 836 837 837 837 838 838 838 838 838 838 838 839 839 839 839 839 838 838 838 838 838 838 838 838 838 838 838 837 837 837 837 837 837 837 837 837 837 837 837 837 837 837 837
781 785 787 789 792 794 798 799 802 803 805 806 808 811 812 813 814 815 816 818 819 820 822 822 823 824 825 825 826 827 828 829 830 831 832 833 834 835 835 836 837 837 837 838 838 839 839 839 839 839 839 839 840 840 840 840 840 840 840 839 839 839 839 839 839 839 839 839 839 838 838 838 838 838 838 838 838 838 838 838 838 839 839 839 838
780 785 787 790 792 794 797 799 802 803 805 806 808 810 812 814 814 816 816 818 819 821 822 823 824 825 826 826 827 828 829 829 830 831 832 834 835 836 836 837 838 838 839 839 839 840 840 840 841 840 841 841 841 841 841 841 841 841 840 840 840 840 840 840 840 840 840 839 839 839 839 839 839 839 839 839 839 839 839 839 839 840 840 840 839
779 784 787 790 792 795 797 799 801 803 806 807 809 810 812 814 815 816 817 818 819 821 822 824 825 826 827 827 828 829 829 830 831 832 833 834 835 836 837 838 839 839 840 840 840 841 841 841 842 842 842 842 842 842 842 842 842 842 841 841 841 841 841 840 841 840 840 840 840 840 841 841 840 840 840 840 841 841 840 840 840 841 841 840 840
779 782 786 789 792 795 796 799 801 803 805 807 809 810 812 814 816 817 817 818 819 821 822 824 825 826 828 828 830 830 831 831 832 832 833 835 836 837 838 839 840 840 840 841 841 842 842 842 842 843 843 843 843 843 843 843 843 843 842 842 842 842 842 842 842 841 841 841 841 841 842 842 842 841 841 842 842 842 842 842 841 841 841 841 841
780 781 786 789 793 795 796 798 801 803 805 807 809 811 813 814 816 817 818 819 820 821 822 824 825 827 828 829 831 831 832 832 832 833 834 835 837 838 839 840 841 841 842 842 842 843 843 843 843 844 844 844 844 844 844 844 844 843 843 843 843 843 843 843 842 842 841 841 841 841 843 843 843 843 842 843 843 843 843 843 843 842 842 842 842
780 782 786 789 793 794 796 798 800 803 804 807 809 811 812 814 816 817 818 819 820 821 822 824 825 827 828 830 831 832 833 833 834 834 834 836 837 838 840 841 842 842 842 843 843 843 843 844 844 845 845 845 845 845 845 844 844 844 844 844 844 844 844 843 842 842 842 841 842 842 843 843 844 844 843 844 844 844 844 844 844 844 843 843 843
781 784 786 789 793 793 796 798 800 803 804 807 808 811 813 814 815 817 819 820 821 821 823 824 826 827 829 830 831 833 833 834 835 835 835 836 837 839 840 841 842 843 843 844 844 844 844 845 845 845 845 846 846 845 845 845 845 845 845 845 845 845 844 843 843 843 842 842 843 843 843 844 845 844 844 844 845 845 845 845 845 844 844 844 844
782 785 787 791 792 793 796 798 800 802 805 807 808 811 813 814 815 817 819 820 822 822 823 824 826 827 829 830 831 833 834 835 835 836 836 837 838 839 840 842 843 844 844 844 844 844 845 845 846 846 846 846 846 846 846 846 845 845 845 845 845 845 844 844 843 843 843 843 844 844 844 845 845 845 845 845 846 846 846 846 846 845 845 845 845
782 785 788 791 792 794 796 799 801 803 806 807 809 811 813 815 816 818 819 821 822 822 824 824 826 827 829 830 832 833 834 835 836 837 837 838 839 839 840 842 843 844 845 845 845 845 845 846 846 846 847 847 847 846 846 846 846 845 845 846 846 846 845 845 844 844 844 844 844 844 844 845 846 846 846 846 847 847 847 847 847 846 846 846 846
782 786 789 790 793 794 797 800 801 803 806 808 810 812 814 815 816 818 820 821 822 823 824 825 826 827 829 830 832 834 834 835 836 838 838 839 839 840 840 842 843 844 845 846 845 845 846 846 847 847 847 847 847 847 847 846 846 846 846 846 846 846 846 845 845 845 846 845 845 845 845 846 846 846 847 847 848 848 848 847 847 847 847 847 847
783 786 788 791 793 795 798 801 803 805 807 809 811 813 815 815 817 818 820 822 823 824 825 826 827 828 829 831 833 834 835 836 837 838 839 840 840 840 841 842 843 844 845 846 846 846 846 847 847 848 848 848 848 847 847 847 847 847 847 847 847 847 846 847 847 847 846 846 846 846 846 846 846 847 847 848 848 849 849 849 849 848 848 848 848
783 786 788 791 793 797 799 802 804 806 808 810 812 814 815 816 818 819 820 822 824 825 826 827 828 829 830 831 833 834 835 836 837 838 839 840 841 841 841 842 843 844 845 846 846 846 847 847 848 848 848 848 848 848 848 847 848 848 848 848 848 847 847 848 849 848 847 847 846 847 847 847 847 847 848 849 849 850 850 850 850 849 849 849 849
784 786 789 791 794 798 800 804 805 807 809 811 813 815 816 818 819 819 821 823 825 826 827 828 828 830 830 832 834 834 835 836 838 838 840 841 841 842 842 843 843 844 845 846 846 847 848 848 848 849 849 849 848 848 848 848 848 848 848 849 848 848 847 848 848 848 848 847 846 847 847 847 848 848 849 850 850 851 851 851 851 850 850 850 850
784 786 790 792 795 798 801 804 805 808 810 812 814 815 817 819 820 820 821 823 826 827 827 828 829 830 831 833 834 835 836 837 838 839 840 841 841 842 842 843 843 844 845 846 847 847 848 848 849 849 849 849 849 849 848 849 848 849 849 849 849 848 848 848 848 847 848 848 847 848 847 848 848 849 850 851 851 851 852 852 852 851 851 851 851
785 787 789 792 795 799 802 805 806 808 810 813 815 816 818 819 821 821 822 824 826 828 828 829 830 831 832 833 835 836 837 837 839 839 840 841 841 842 843 843 844 844 845 846 847 848 848 848 849 849 849 849 849 849 849 849 849 849 849 849 849 848 849 849 849 848 848 848 848 848 848 849 849 850 851 852 852 852 852 853 853 852 852 852 851
785 788 789 791 795 799 802 805 807 809 810 813 815 817 819 820 822 822 823 824 826 828 829 830 830 832 833 834 835 836 838 838 839 840 841 841 841 842 843 843 844 845 845 845 847 847 848 849 849 849 849 849 849 849 849 849 849 849 850 850 849 849 849 849 849 849 849 848 849 849 849 850 850 851 852 852 853 853 853 853 854 853 852 852 851
786 789 790 791 794 798 802 804 807 809 811 813 815 817 819 820 822 822 824 825 827 829 829 830 831 832 833 834 836 837 838 839 840 840 841 841 842 842 843 843 844 844 845 845 846 847 848 849 849 849 849 849 849 849 849 850 850 850 850 850 850 850 850 850 849 849 850 850 850 850 850 851 851 852 852 853 853 854 854 854 854 853 853 852 852
787 790 792 792 793 797 800 804 807 809 811 812 814 816 819 820 822 823 824 826 827 829 830 831 831 832 833 835 836 837 838 839 840 841 841 842 842 843 843 844 844 844 845 845 846 847 848 849 849 849 849 849 849 849 849 849 850 850 850 851 851 851 851 851 850 850 851 851 851 851 851 852 852 853 853 854 854 854 854 854 854 854 853 853 852
787 790 793 793 793 797 799 803 806 809 811 812 814 816 818 820 822 823 824 826 828 829 830 831 832 833 833 835 836 837 838 839 840 841 842 843 843 843 843 844 844 844 845 845 846 847 848 848 848 849 848 848 849 848 849 849 850 850 851 851 851 851 852 853 853 852 851 851 852 852 852 853 853 854 854 854 854 855 855 855 855 854 854 853 853
787 790 792 793 794 796 799 802 805 808 810 811 814 815 818 820 821 823 824 826 827 829 830 831 832 833 834 835 836 837 838 839 840 841 841 843 843 844 844 844 844 844 845 845 846 846 847 848 848 848 848 848 848 848 848 849 849 851 852 852 852 852 852 853 854 853 852 852 852 852 853 853 854 854 854 855 855 855 855 855 855 855 854 854 854
785 788 791 792 794 796 798 801 803 806 809 811 812 814 817 819 821 822 824 826 827 829 830 831 833 834 835 836 837 837 838 839 840 841 841 842 843 844 844 844 845 845 845 845 846 846 847 848 848 848 848 848 847 848 848 848 850 851 852 853 852 852 851 852 853 853 852 852 853 853 854 854 855 855 855 855 856 856 856 856 856 855 855 855 855
782 785 788 790 792 795 797 799 802 804 807 810 811 814 816 819 821 822 823 826 827 829 830 832 833 834 835 836 837 837 838 839 839 840 841 842 843 843 844 845 845 845 845 845 846 846 847 847 847 847 847 847 847 848 848 848 850 851 853 853 852 852 852 853 853 852 851 852 853 853 854 855 855 856 856 856 856 856 856 856 856 856 856 856 856
779 781 785 788 790 793 795 798 800 803 805 808 810 812 815 818 820 821 823 824 826 828 830 831 832 834 835 836 837 837 838 839 839 840 841 842 842 843 844 844 845 845 845 846 846 846 846 847 847 847 846 846 846 847 847 848 849 851 852 851 852 852 852 852 852 851 852 852 853 853 854 855 856 856 856 856 857 857 856 857 857 857 857 857 857
777 780 783 786 789 791 794 797 799 802 804 807 809 811 814 816 818 820 822 823 825 827 829 831 832 833 834 835 836 836 837 838 839 839 840 841 841 843 843 844 845 845 845 846 846 846 846 846 846 846 846 845 845 846 847 847 849 850 851 850 851 851 850 851 851 852 851 852 853 854 854 855 856 856 857 857 857 857 857 857 858 858 858 858 858
776 778 781 784 787 790 793 796 798 801 803 805 808 810 812 814 817 819 820 822 824 825 827 829 831 832 833 834 834 835 836 837 838 839 840 840 841 842 842 843 844 844 845 845 845 845 845 845 845 845 844 844 844 845 846 847 848 850 850 851 851 850 850 851 851 852 852 852 853 854 855 856 856 857 857 857 857 858 858 858 858 858 858 858 858
774 776 779 783 786 788 791 794 797 799 802 804 807 809 811 813 815 817 819 821 822 824 826 827 829 831 832 833 833 834 835 836 837 837 838 839 839 840 841 842 843 843 843 844 844 844 844 844 844 844 843 843 844 844 846 847 848 849 850 850 850 850 850 851 851 852 852 853 854 855 855 856 857 857 858 858 858 858 859 859 859 859 859 859 860
771 774 777 780 784 787 790 793 796 798 801 803 806 808 810 812 814 816 818 820 821 822 824 826 828 829 831 832 832 833 834 834 835 836 836 837 838 839 840 840 841 842 842 842 842 842 842 842 842 842 842 843 843 844 846 848 848 849 850 850 850 851 851 851 851 852 852 854 855 856 856 857 857 858 858 859 859 859 860 860 860 860 860 860 861
769 772 775 778 782 785 789 792 794 797 800 802 804 806 808 811 813 815 817 819 820 821 823 824 826 828 830 831 831 833 833 833 834 835 835 836 836 837 838 839 839 840 840 841 841 841 841 840 841 842 842 842 843 845 846 847 849 850 850 850 850 851 851 851 851 852 853 854 856 857 857 857 858 858 859 860 860 861 861 861 861 861 861 861 862
768 770 773 776 780 783 787 791 793 795 798 800 802 804 807 809 812 814 816 818 819 820 821 823 825 827 829 830 831 831 832 832 833 833 834 835 835 836 836 837 838 838 839 839 839 840 840 840 841 841 841 842 843 844 846 847 849 851 851 850 851 851 851 851 851 852 853 854 856 857 858 858 859 859 860 860 861 862 862 862 862 862 862 862 863
766 769 771 774 777 780 784 789 792 794 797 799 800 803 805 808 810 813 815 817 818 819 820 822 824 825 827 829 829 830 831 831 832 832 833 833 834 834 835 836 836 837 837 838 838 838 839 840 840 841 841 842 843 844 846 847 849 851 851 851 851 851 852 851 851 852 853 854 856 858 858 859 859 859 860 861 862 862 863 863 863 863 863 863 863
764 767 769 772 774 777 781 786 790 793 795 797 799 802 804 807 809 811 813 815 817 818 819 821 822 824 826 827 828 829 830 830 831 831 832 832 833 833 834 834 835 835 836 836 837 837 838 839 840 841 841 842 842 844 846 847 849 850 850 851 851 851 852 851 851 852 854 855 857 858 859 859 859 860 861 861 862 863 863 864 864 864 864 864 864
760 764 768 770 773 775 779 783 787 791 794 796 798 801 803 806 808 809 812 814 816 817 818 819 821 823 824 825 827 827 828 829 829 830 831 831 831 832 833 833 833 834 834 835 835 836 837 838 839 841 841 842 843 845 847 848 849 850 850 851 851 851 852 852 853 854 855 855 857 858 859 860 860 860 861 862 863 863 864 864 864 864 865 865 864
756 761 765 767 770 773 777 780 784 788 791 794 797 799 802 804 806 808 810 812 814 816 817 818 820 821 822 823 825 826 827 827 828 829 830 830 830 831 831 832 832 832 833 833 834 835 836 837 839 840 841 842 844 846 848 850 851 851 851 851 851 852 852 852 854 855 855 856 857 858 859 860 860 861 862 862 863 863 864 864 864 865 865 865 865
753 757 761 764 767 770 774 777 782 786 789 792 795 797 800 802 804 806 808 811 813 815 816 817 818 820 821 821 823 824 825 826 827 828 829 829 830 830 830 830 831 831 831 832 833 834 834 836 837 838 840 843 844 846 848 852 853 851 851 851 851 852 852 853 854 855 856 856 857 858 859 860 860 861 862 862 863 863 864 864 865 865 865 865 865
751 755 759 762 766 768 770 773 778 784 787 791 793 796 798 801 803 805 807 809 811 813 814 816 817 818 819 819 821 822 823 825 826 827 828 828 828 829 829 829 829 830 830 831 831 832 833 834 836 837 839 842 843 844 847 851 852 850 850 851 851 852 852 854 854 855 856 856 857 858 859 860 860 861 862 863 863 863 863 864 864 864 864 865 865
750 753 757 761 764 767 768 769 774 781 786 789 792 794 797 800 802 804 806 808 810 811 813 814 815 816 817 817 819 820 822 823 825 826 827 827 827 828 828 828 828 829 829 830 830 831 832 834 837 837 838 840 842 844 847 849 849 849 850 851 850 851 852 853 854 855 856 856 857 858 859 859 860 861 862 862 863 863 863 863 864 864 864 864 864
750 752 756 760 764 768 766 764 770 778 783 787 790 793 796 799 801 803 805 807 808 810 811 812 813 814 815 816 817 818 820 822 824 825 825 826 826 827 827 827 827 827 827 828 829 830 830 833 837 838 838 840 841 844 846 847 848 849 851 851 850 850 852 853 854 855 855 856 857 857 858 859 860 860 862 862 862 863 863 863 863 863 863 863 864
750 751 755 760 765 769 767 763 767 775 781 786 789 792 794 797 800 802 803 805 807 808 809 810 811 813 813 814 815 817 819 820 822 824 824 825 825 826 826 826 826 826 825 827 828 828 828 832 836 837 837 839 841 843 845 846 848 849 850 851 850 851 852 853 854 855 855 856 856 857 858 858 859 860 861 862 862 862 862 862 862 863 863 863 863
748 750 754 759 763 767 768 765 765 771 778 784 787 790 792 795 797 800 801 803 805 806 808 808 810 811 812 813 814 815 817 819 821 822 823 823 824 825 825 825 825 824 824 825 826 826 827 829 834 835 835 837 839 841 844 845 847 849 850 850 851 851 852 853 854 854 855 855 856 857 857 858 859 859 860 861 862 862 862 862 862 862 862 862 862
746 749 752 757 759 762 765 765 765 768 774 779 783 786 788 790 794 796 799 801 803 804 806 807 808 810 811 811 812 814 816 817 819 821 821 822 823 824 824 824 824 823 823 824 825 824 825 827 832 833 833 835 838 841 843 844 847 849 850 850 851 851 852 853 853 853 854 855 855 856 857 857 858 859 859 860 861 861 861 862 862 862 862 861 862
743 746 749 754 756 758 762 764 765 766 771 776 779 782 784 785 789 792 796 798 800 802 804 806 807 808 810 810 811 812 814 816 818 819 820 821 821 822 823 823 823 823 822 822 823 822 823 825 829 831 832 834 837 840 842 842 844 845 847 849 851 852 852 852 852 852 853 854 855 855 856 857 857 858 858 859 860 860 860 861 861 861 861 861 861
740 743 746 751 753 756 759 763 765 764 768 773 776 779 781 782 785 788 792 795 798 800 801 803 805 807 808 809 810 811 812 814 816 817 818 819 820 821 822 822 823 822 821 821 821 821 821 823 827 829 830 832 835 838 839 840 841 842 844 846 847 849 851 851 851 851 852 853 854 854 855 855 856 857 858 858 859 859 859 859 860 860 860 861 861
738 741 745 748 750 753 756 759 763 763 765 769 773 777 780 782 783 786 789 793 795 797 799 801 803 805 807 808 808 809 811 813 814 816 817 818 819 820 820 821 821 821 820 819 820 820 821 821 825 827 828 830 833 836 837 837 838 839 841 842 843 845 846 847 849 850 851 852 852 853 854 854 855 856 856 857 857 858 858 858 858 859 860 860 860
735 738 741 743 746 749 752 756 760 762 763 766 770 775 778 781 782 784 788 790 792 795 797 799 801 803 805 806 807 808 809 811 812 814 815 816 817 818 819 819 819 819 818 818 818 819 820 820 822 825 826 828 830 833 835 835 836 836 837 838 841 844 842 842 846 848 849 850 851 851 852 853 853 854 855 855 856 856 856 857 857 858 859 860 860
732 735 738 739 742 745 749 754 758 760 761 763 767 771 775 777 778 780 783 786 789 792 795 797 798 801 803 804 805 806 808 809 811 812 813 815 816 816 817 817 818 817 817 817 818 818 818 818 819 821 823 825 827 830 832 833 834 835 836 836 839 843 841 840 843 846 848 848 848 849 850 851 851 852 853 854 854 855 855 856 856 857 858 859 859
731 731 734 736 738 741 746 751 754 756 759 762 765 768 771 774 775 775 777 780 785 789 793 795 797 799 801 802 803 805 806 808 809 810 812 813 814 815 815 816 816 815 815 816 817 818 818 817 817 819 821 823 825 827 829 832 833 834 835 836 838 840 840 840 840 842 845 846 846 847 847 848 849 850 851 852 852 853 854 854 855 856 857 858 858
731 728 730 732 735 739 743 747 751 753 756 759 762 765 767 770 773 774 774 777 781 787 791 793 795 798 799 800 802 803 805 806 808 809 810 811 812 813 813 814 814 814 814 814 816 818 818 817 817 818 820 821 823 824 827 830 832 833 835 836 837 838 839 839 839 839 841 841 843 844 845 846 847 848 849 850 851 851 852 853 854 855 855 856 857
730 727 726 729 732 734 739 743 747 751 754 757 759 762 765 766 770 772 773 774 778 783 788 790 793 795 797 798 800 801 803 804 806 807 808 809 810 811 811 812 812 813 813 814 816 818 818 818 818 818 819 820 821 823 825 828 830 832 833 835 836 836 837 837 838 838 838 838 839 840 842 844 846 847 847 848 849 850 851 852 853 853 854 855 856
727 726 724 727 729 732 736 739 743 748 751 754 757 759 762 763 765 769 771 772 774 778 784 787 790 793 795 796 798 799 801 802 804 805 806 807 808 809 809 810 811 812 813 814 817 818 819 819 819 819 819 819 820 822 823 826 828 830 831 833 833 834 835 835 836 836 837 838 837 837 838 841 842 844 845 846 848 848 849 851 852 852 852 853 854
723 725 724 725 727 729 733 736 739 744 747 750 755 758 759 759 761 765 768 769 770 773 778 783 787 789 791 793 795 797 798 800 801 803 804 805 806 806 807 808 809 811 812 814 816 818 818 819 819 820 818 818 819 821 823 825 826 828 829 830 831 832 833 833 834 834 835 836 836 834 834 835 838 839 840 843 845 847 848 849 850 851 850 851 852